Weather in Schirets

Ukraine / Lviv District     49°39′04″N   23°51′21″E
temp.,
°C
wind,
m/s
gust,
m/s
humid.,
%
clouds,
%
prec.,
mm/h
press.,
hPa
HPBL,
m
31 july, sat
sat3100:00+19sse47750 0.0 101099
03:00+18ssw227348 0.0 101019
06:00+19ssw23673 0.0 100937
09:00+22ssw236451 0.0 1010184
12:00+27ssw4553100 0.0 1009780
15:00+29sse444891 0.0 10081620
18:00+26ese2659100 0.9 1007343
21:00+18wnw5898100 12.9 1010351
1 august, sun
sun100:00+17w229895 3.7 101180
03:00+15wsw239826 3.7 101177
06:00+15ssw11920 0.0 101111
09:00+19s22815 0.0 1011216
12:00+25se34614 0.0 1010687
15:00+27se5651100 0.0 1008929
18:00+27se7116343 0.0 1005577
21:00+20s61478100 0.1 1005319
2 august, mon
mon200:00+17sw489179 0.8 1006165
03:00+17w369713 0.9 1007128
06:00+16w499837 0.0 1007280
09:00+17wnw4794100 0.0 1009563
12:00+15wnw5795100 0.8 1011447
15:00+16wnw4793100 1.2 1012438
18:00+17wnw358497 0.0 1012557
21:00+14wnw349480 0.0 101374
3 august, tue
tue300:00+13w349454 0.0 101468
03:00+13w35965 0.0 101593
06:00+12w22950 0.0 101630
09:00+17w34800 0.0 1016290
12:00+21w35631 0.0 10161182
15:00+23wnw365047 0.1 10152036
18:00+23nw44562 0.0 10151068
21:00+18se117210 0.0 101511
4 august, wed
wed400:00+16se3379100 0.3 101635
03:00+15se3687100 0.4 101594
06:00+14sse38935 0.0 1015133
09:00+19s3474100 0.0 1015174
12:00+24ssw355411 0.0 1014693
15:00+28ssw2640100 0.0 10132130
18:00+25sse3663100 0.0 1012292
21:00+20ese41172100 0.0 1012215